User: anonymous   Login
Location: Caltech
(34.1382°N, 118.1253°W)
Time: 03:15:10
(UTC-08:00)
Language:

Cosmos 1758 Rocket - Orbit

View from above orbital plane
View from above orbital plane
View from above satellite
View from above satellite

Ground track
Ground track

The orbit data is extracted from the following two-line orbital elements,

1 16792U 86046B   17327.20435326  .00000124  00000-0  12119-4 0  9999
2 16792  82.4851  52.7850 0025495 127.5430 293.5848 14.83158053698458
Epoch (UTC): 23 November 2017 04:54:16
Eccentricity: 0.0025495
inclination: 82.4851°
perigee height: 601 km
apogee height: 637 km
right ascension of ascending node: 52.7850°
argument of perigee: 127.5430°
revolutions per day: 14.83158053
mean anomaly at epoch: 293.5848°
orbit number at epoch: 69845

The dashed part of the orbit path shows where the satellite is in the earth's shadow,  

DLR